Location: Del Amo
(33.8464°N, 118.2104°W)
Time: 16:31:18
(UTC+00:00)

Tiros 1 despin weight - Pass Details

Date: 18 September 2024
Orbit: 573 x 615 km, 48.2° (Epoch: 04 October)

Event Time Altitude Azimuth Distance (km) Brightness Sun altitude
Exits shadow 10:40:37 14° 25° (NNE) 1,738 ? -36.0°
Drops below altitude 10° 10:41:26 10° 32° (NNE) 1,979 ? -35.8°
Sets 10:44:07 0° 46° (NE) 2,888 ? -35.4°
